Location: Oberwangen
(47.4286°N, 8.9679°E)
Time: 00:39:27
(UTC+00:00)

NOAA 16 DEB - Visible Passes

Search period start: 15 August 2022 00:00
Search period end: 25 August 2022 00:00
Orbit: 771 x 835 km, 98.9° (Epoch: 14 August)

Date Brightness Start Highest point End Pass type
(mag) Time Alt. Az. Time Alt. Az. Time Alt. Az.
15 Aug ? 00:23:56 41° ESE 00:25:16 51° ENE 00:30:31 10° N visible
15 Aug ? 02:04:56 26° W 02:05:12 26° W 02:09:45 10° NW visible
15 Aug ? 23:57:56 27° E 23:59:41 33° ENE 00:04:28 10° N visible
16 Aug ? 01:38:56 42° WSW 01:39:14 42° W 01:44:25 10° NNW visible
16 Aug ? 23:31:56 17° E 23:34:12 22° ENE 23:38:12 10° N visible
17 Aug ? 01:12:56 66° SW 01:13:23 69° WSW 01:18:49 10° NNW visible
17 Aug ? 02:53:56 10° W 02:54:03 10° W 02:54:13 10° W visible
17 Aug ? 23:06:02 10° E 23:08:47 14° NE 23:11:33 10° NNE visible
18 Aug ? 00:46:56 66° SE 00:47:37 75° ENE 00:53:03 10° NNW visible
18 Aug ? 02:27:56 17° W 02:27:56 17° W 02:31:27 10° NW visible
19 Aug ? 00:20:56 42° E 00:21:56 47° ENE 00:27:07 10° N visible
19 Aug ? 02:01:56 28° W 02:01:56 28° W 02:06:28 10° NW visible
19 Aug ? 23:54:56 27° E 23:56:21 31° ENE 00:01:01 10° N visible
20 Aug ? 01:35:56 45° W 01:35:56 45° W 01:41:04 10° NNW visible
20 Aug ? 23:28:55 17° E 23:30:51 20° ENE 23:34:42 10° NNE visible
21 Aug ? 01:09:55 74° WSW 01:09:59 74° WSW 01:15:26 10° NNW visible
21 Aug ? 02:50:55 11° W 02:50:55 11° W 02:52:04 10° WNW visible
21 Aug ? 23:02:59 10° E 23:05:27 13° NE 23:07:54 10° NNE visible
22 Aug ? 00:43:54 68° E 00:44:13 70° ENE 00:49:37 10° N visible
22 Aug ? 02:24:54 19° W 02:24:54 19° W 02:28:11 10° NW visible
23 Aug ? 00:17:54 42° E 00:18:32 44° ENE 00:23:39 10° N visible
23 Aug ? 01:58:53 30° W 01:58:53 30° W 02:03:07 10° NW visible
23 Aug ? 23:51:52 27° E 23:52:57 29° ENE 23:57:30 10° N visible
24 Aug ? 01:32:52 48° W 01:32:52 48° W 01:37:39 10° NNW visible
24 Aug ? 23:25:52 17° ENE 23:27:26 19° ENE 23:31:06 10° NNE visible
